Meteo Giornale » Osservazioni meteo Stati Uniti (USA) » Camarillo
ore: 10:55 - Osservazioni Meteo Camarillo
Lat. 34° 13' N Lon. 119° 5' W Alt. 23 metri s.l.m.
24 °C
Sereno
Temp. 24 Ore
16 °C
27 °C
Sud-Ovest
11.1 Km/h
Dew point 17 °C
Umidità 64 %
Visibilità 13 Km
Il sole sorge alle ore 06:29
Il sole tramonta alle ore 19:23
| Data e Ora | Cielo e Fenomeni | T °C | DP °C | Um. % | Pres. hPa | Vis. km | Vento km/h | |
|---|---|---|---|---|---|---|---|---|
| Oggi h: 10:55 | Sereno | 24 | 17 | 64 | 1014 | 13 | SO 11.1 | |
| Oggi h: 09:55 | Sereno | 22 | 17 | 73 | 1013 | 13 | N 7.4 | |
| Oggi h: 08:55 | Foschia | 19 | 16 | 82 | 1013 | 10 | N 7.4 | |
| Oggi h: 07:55 | Foschia | 18 | 15 | 82 | 1013 | 10 | N 0 | |
| Oggi h: 06:55 | Foschia | 16 | 14 | 87 | 1012 | 10 | N 5.5 | |
| Oggi h: 05:55 | Sereno | 16 | 14 | 87 | 1012 | 11 | N 5.5 | |
| Oggi h: 04:55 | Sereno | 17 | 15 | 88 | 1012 | 13 | N 5.5 | |
| Oggi h: 03:55 | Sereno | 18 | 16 | 88 | 1012 | 13 | N 0 | |
| Oggi h: 02:55 | Sereno | 18 | 16 | 88 | 1012 | 13 | N 0 | |
| Oggi h: 01:55 | Sereno | 18 | 16 | 88 | 1011 | 13 | N 0 | |
| Oggi h: 00:55 | Sereno | 19 | 16 | 82 | 1011 | 13 | N 0 | |
| Ieri h: 23:55 | Sereno | 19 | 16 | 82 | 1011 | 13 | N 0 | |
| Ieri h: 22:55 | Sereno | 19 | 16 | 82 | 1011 | 13 | N 0 | |
| Ieri h: 21:55 | Sereno | 20 | 16 | 77 | 1011 | 13 | N 5.5 | |
| Ieri h: 20:55 | Sereno | 20 | 16 | 77 | 1011 | 13 | N 5.5 | |
| Ieri h: 19:55 | Sereno | 21 | 17 | 77 | 1010 | 14 | O/SO 7.4 | |
| Ieri h: 18:55 | Sereno | 22 | 16 | 68 | 1010 | 13 | O/SO 13 | |
| Ieri h: 17:55 | Sereno | 23 | 16 | 64 | 1010 | 14 | O 18.5 | |
| Ieri h: 16:55 | Sereno | 26 | 16 | 54 | 1010 | 14 | O 18.5 | |
| Ieri h: 15:55 | Sereno | 26 | 17 | 57 | 1010 | 14 | O/SO 14.8 | |
| Ieri h: 14:55 | Sereno | 27 | 17 | 54 | 1011 | 10 | O/SO 13 | |
| Ieri h: 13:55 | Sereno | 26 | 17 | 57 | 1012 | 14 | O 11.1 | |
| Ieri h: 12:55 | Sereno | 26 | 18 | 61 | 1012 | 14 | O 20.3 | |
| Ieri h: 11:55 | Sereno | 26 | 18 | 61 | 1012 | 14 | SO 11.1 | |



